TimeEDT,TemperatureF,Dew PointF,Humidity,Sea Level PressureIn,VisibilityMPH,Wind Direction,Wind SpeedMPH,Gust SpeedMPH,PrecipitationIn,Events,Conditions,WindDirDegrees,DateUTC
12:03 AM,50.0,46.4,87,30.09,10.0,South,9.2,-,N/A,,Scattered Clouds,170,2013-03-12 04:03:00
12:51 AM,50.0,46.9,89,30.06,10.0,South,6.9,-,N/A,,Mostly Cloudy,180,2013-03-12 04:51:00
1:51 AM,51.8,48.2,88,30.01,10.0,South,10.4,-,N/A,,Clear,170,2013-03-12 05:51:00
2:51 AM,51.1,46.9,86,30.00,10.0,South,11.5,-,N/A,,Mostly Cloudy,180,2013-03-12 06:51:00
3:51 AM,51.1,46.0,83,29.99,10.0,South,9.2,-,N/A,,Mostly Cloudy,170,2013-03-12 07:51:00
4:51 AM,51.1,46.0,83,29.97,10.0,South,9.2,-,0.00,Rain,Light Rain,170,2013-03-12 08:51:00
5:51 AM,51.1,48.0,89,29.95,10.0,SSE,6.9,-,0.04,Rain,Light Rain,160,2013-03-12 09:51:00
6:51 AM,51.1,48.0,89,29.95,7.0,South,8.1,-,0.04,Rain,Light Rain,170,2013-03-12 10:51:00
7:51 AM,50.0,48.0,93,29.94,4.0,South,9.2,-,0.04,Rain,Light Rain,170,2013-03-12 11:51:00
8:51 AM,51.1,48.9,92,29.92,5.0,South,10.4,-,0.03,Rain,Light Rain,180,2013-03-12 12:51:00
9:51 AM,52.0,50.0,93,29.91,7.0,South,11.5,19.6,0.03,Rain,Light Rain,170,2013-03-12 13:51:00
10:51 AM,53.1,50.0,89,29.88,5.0,South,11.5,21.9,0.05,Rain,Light Rain,170,2013-03-12 14:51:00
11:24 AM,53.6,50.0,88,29.86,4.0,South,13.8,-,0.07,Rain,Light Rain,170,2013-03-12 15:24:00
11:51 AM,53.1,51.1,93,29.84,3.0,SSE,16.1,24.2,0.11,Rain,Light Rain,160,2013-03-12 15:51:00
11:59 AM,53.6,51.8,94,29.84,4.0,South,16.1,24.2,0.01,Rain,Light Rain,170,2013-03-12 15:59:00
12:18 PM,53.6,51.8,94,29.82,4.0,South,16.1,20.7,0.04,Rain,Light Rain,170,2013-03-12 16:18:00
12:51 PM,54.0,51.1,90,29.80,4.0,South,18.4,25.3,0.08,Rain,Light Rain,170,2013-03-12 16:51:00
1:03 PM,53.6,51.8,94,29.80,4.0,South,19.6,27.6,0.00,Rain,Light Rain,170,2013-03-12 17:03:00
1:12 PM,53.6,51.8,94,29.80,4.0,South,21.9,38.0,0.02,Rain,Rain,170,2013-03-12 17:12:00
1:51 PM,53.1,51.1,93,29.76,4.0,South,18.4,34.5,0.08,Rain,Rain,170,2013-03-12 17:51:00
2:51 PM,54.0,51.1,90,29.70,5.0,South,23.0,33.4,0.09,Rain,Light Rain,170,2013-03-12 18:51:00
3:15 PM,53.6,51.8,94,29.69,1.8,South,20.7,34.5,0.01,Rain,Light Rain,170,2013-03-12 19:15:00
3:46 PM,51.8,51.8,100,29.69,1.8,South,16.1,25.3,0.25,Rain,Rain,180,2013-03-12 19:46:00
3:51 PM,52.0,51.1,97,29.69,1.8,South,15.0,25.3,0.30,Rain,Rain,170,2013-03-12 19:51:00
4:14 PM,53.6,51.8,94,29.67,5.0,South,13.8,18.4,0.05,Rain,Light Rain,180,2013-03-12 20:14:00
4:51 PM,55.0,52.0,89,29.66,2.5,South,13.8,23.0,0.06,Rain,Light Rain,170,2013-03-12 20:51:00
4:58 PM,55.4,53.6,94,29.66,3.0,South,12.7,23.0,0.00,Rain,Light Rain,170,2013-03-12 20:58:00
5:30 PM,55.4,53.6,94,29.67,2.0,South,12.7,-,0.02,Rain,Light Rain,180,2013-03-12 21:30:00
5:44 PM,55.4,53.6,94,29.67,5.0,SSE,8.1,19.6,0.03,Rain,Light Rain,160,2013-03-12 21:44:00
5:51 PM,55.0,53.1,93,29.67,5.0,South,4.6,-,0.03,,Overcast,190,2013-03-12 21:51:00
6:15 PM,55.4,53.6,94,29.69,6.0,South,4.6,-,N/A,,Overcast,170,2013-03-12 22:15:00
6:51 PM,54.0,52.0,93,29.72,9.0,WNW,11.5,19.6,0.00,,Overcast,300,2013-03-12 22:51:00
7:17 PM,53.6,48.2,82,29.75,10.0,NW,15.0,-,N/A,,Overcast,310,2013-03-12 23:17:00
7:51 PM,52.0,45.0,77,29.76,10.0,NW,12.7,20.7,N/A,,Overcast,310,2013-03-12 23:51:00
8:51 PM,48.9,39.9,71,29.81,10.0,NW,13.8,21.9,N/A,,Overcast,310,2013-03-13 00:51:00
9:51 PM,46.9,37.9,71,29.82,10.0,NW,12.7,21.9,N/A,,Overcast,320,2013-03-13 01:51:00
10:51 PM,45.0,37.0,74,29.83,10.0,NW,15.0,20.7,N/A,,Overcast,320,2013-03-13 02:51:00
11:51 PM,43.0,36.0,76,29.83,10.0,NW,9.2,-,N/A,,Clear,310,2013-03-13 03:51:00